weather.gov     
National Weather Service

Regional Weather Roundup
NWS Homepage
This page is being discontinued on March 12, 2014.
The same data is available at this site. Please update your bookmarks.
Thank you, and we apologize for the inconvenience.
Please send an email to SR-SRH.Webmaster@noaa.gov with any concerns.


Current Version
Previous Version:    01  02  03  04  05  06  07  08  09  10  11  12  13  14  15  16  17  18  19  20  21  22  23  24  25  26  27  28  29  30  
   31  32  33  34  35  36  37  38  39  40  41  42  43  44  45  46  47  48  49  50  51  52  53  
[Printable]
825
ASUS42 KCHS 210225
RWRCHS

REGIONAL WEATHER ROUNDUP
NATIONAL WEATHER SERVICE CHARLESTON SC
1000 PM EDT SUN APR 20 2014

NOTE: "FAIR" INDICATES FEW OR NO CLOUDS BELOW 12,000 FEET WITH NO
SIGNIFICANT WEATHER AND/OR OBSTRUCTIONS TO VISIBILITY.

NOT ALL STATIONS ARE QUALITY CONTROLLED BY THE NATIONAL
WEATHER SERVICE. USE DATA WITH CAUTION...ESPECIALLY
DEWPOINT OBSERVATIONS.

SCZ027-030-031-034>040-042>050-210300-
...SOUTH CAROLINA...

CITY           SKY/WX    TMP DP  RH WIND       PRES   REMARKS
N CHARLESTON   CLOUDY    65  51  60 N15       30.12R
WATERFRONT PRK   N/A     63 N/A N/A N15G21      N/A
FORT JOHNSON     N/A     63  54  72 VRB13G21  30.15R
MOUNT PLEASANT CLOUDY   N/A N/A N/A N13G24    30.11R
JOHNS ISLAND   CLOUDY    64  55  72 N16G23    30.11S
PINOPOLIS        N/A     64  54  68 N15       30.04S
MONCKS CORNER  FAIR      64  55  72 N9        30.12R
SUMMERVILLE    NOT AVBL
BEAUFORT MCAS  CLOUDY    64  50  60 NE7       30.12S
BEAUFORT ARPT  CLOUDY    63  52  67 N12       30.11S
HILTON HEAD IS CLOUDY    64  52  63 N10G17    30.12F
GEORGETOWN     NOT AVBL
WALTERBORO     PTCLDY    59  50  72 N3        30.13F
ORANGEBURG     CLOUDY    63  43  48 N8        30.15R
BARNWELL       MOCLDY    61  46  59 N7        30.16S
AIKEN          CLOUDY    61  48  63 NE3       30.20S
MANNING        CLOUDY    63  36  36 N9        30.14S
KINGSTREE      NOT AVBL
COLUMBIA       CLOUDY    66  40  38 N5        30.16S
SUMTER         CLOUDY    63  46  55 N9        30.14R
FLORENCE       CLOUDY    63  49  60 N10       30.16R
MYRTLE BEACH   CLOUDY    59  48  67 N17G29    30.10R
N MYRTLE BEACH CLOUDY    58  47  66 N20G33    30.10R

$$

GAZ063-065-086>088-099>101-113>116-118-119-134-136>141-150-210300-
...GEORGIA...

CITY           SKY/WX    TMP DP  RH WIND       PRES   REMARKS
SAVANNAH ARPT  PTCLDY    60  51  72 N5        30.13R
HUNTER AAF     PTCLDY    62  51  66 VRB2      30.10S
FORT STEWART   MOCLDY    62  54  77 N5        30.12R
STATESBORO     NOT AVBL
SYLVANIA       MOCLDY    63  50  62 N3        30.15S
CLAXTON        FAIR      59  59 100 CALM      30.14S
THOMSON        CLEAR     55  50  82 CALM      30.21S
AUGUSTA-BUSH   CLOUDY    63  44  50 NE3       30.15F
AUGUSTA-DANIEL CLOUDY    66  42  41 NE6       30.16F
SWAINSBORO     FAIR      61  50  67 CALM      30.16S
VIDALIA        CLOUDY    64  52  63 NE7       30.15S
ALMA           CLOUDY    62  57  83 CALM      30.13R
WAYCROSS       NOT AVBL
JESUP          CLOUDY    61  55  82 NE3       30.13S
BRUNSWICK      CLOUDY    61  59  94 CALM      30.13R
SAINT SIMONS   CLOUDY    61  57  87 CALM      30.12R

$$

SCZ027-028-034-036>038-045-046-048>050-GAZ119-141-210300-
...LAKE AND SUPPLEMENTAL COASTAL OBSERVATIONS...

STATION/POSITION TIME  TEMP    WIND        PRES    WAVE   SWELL
                       AIR SEA DIR/SP/G            HT/PER HT/PER/DIR
                 (UTC) (F)     (DEG/KT/KT) (MB)    (FT/S) (FT/S/D)
UPR LAKE MARION  NOT AVBL
WINYAH BAY       0200   60     360/ 13     1019.0S
LAKE MURRAY      0200   63      30/  2/  4 1021.0S
ACE BASIN NERRS  0200   63     350/  3     1020.0S
FORT PULASKI     0200   63 58  360/  8/ 11 1019.8F
SAPELO ISLAND    0200   63      10/  4     1020.0R

$$

ANZ835-935-AMZ111-154-330-350-352-354-374-450-454-472-210300-
...C-MAN AND BUOY OBSERVATIONS...

STATION/POSITION TIME  TEMP    WIND        PRES    WAVE   SWELL
                       AIR SEA DIR/SP/G            HT/PER HT/PER/DIR
                 (UTC) (F)     (DEG/KT/KT) (MB)    (FT/S) (FT/S/D)
FOLLY BEACH CMAN 0200   63      10/ 16/ 19 1019.8R
BUOY 41004       NOT AVBL
BUOY 41008       0200   64 63   30/ 17/ 19 1019.0S   5/ 7   3/ 70/11
5E ST. MARYS GA  0200      63                N/A     4/ 8   2/ 70/11
FRYING PAN BUOY  0200   59 68   30/ 33/ 41 1015.3R  11/ 8   5/ 70/11
BUOY 41025       0200   60 76   10/ 31/ 37 1014.8F  18/11  13/ 50/11
CAPE LOOKOUT NC  0200   52      10/ 29/ 35 1018.0R
BUOY 41002       NOT AVBL
BUOY 41010       0200   72 76  340/ 19/ 23 1014.6R   9/ 9   7/ 50/ 9
BUOY 41012       NOT AVBL
ST AUGUSTINE FL  0200   60     320/  6/  8 1019.7F
CAPERS NEARSHORE NOT AVBL
FRIPP NEARSHORE  0100   63     360/ 12/ 16   N/A


$$




U.S. Dept. of Commerce
NOAA National Weather Service
1325 East West Highway
Silver Spring, MD 20910
E-mail: w-nws.webmaster@noaa.gov
Page last modified: May 16, 2007
NATIONAL WEATHER SERVICE: for Safety, for Work, for Fun - FOR LIFE